星链-5635 (STARLINK-5635 )

导读

STARLINK-5635是美国SpaceX公司星链(Starlink)星座中的一颗低轨通信卫星,于2023年1月26日发射。星链星座旨在为全球提供高速低延迟宽带互联网服务,尤其覆盖基础设施匮乏的偏远地区。该卫星采用平板设计,配备氪工质霍尔推进器,具备自主避撞能力,寿命末期会主动离轨并在大气层烧毁,目前运行在近地轨道,为全球网络覆盖提供支持。

Basic Information
目录编号:
55367
目录名称:
STARLINK-5635
国际标识:
2023-013AN
轨道中心:
EARTH
卫星名称:
星链-5635
卫星全名:
星链-5635 (STARLINK-5635 )
卫星状态:
在轨 (已飞行1236 天)
发射日期:
2023-01-26 UTC
国别 :
美国 (US)
星等 :
--
Orbit Information
数据来源 国际轨道数据 AOE轨道数据
星历时间 2026-06-14T21:07:26+0800
14小时前
查看轨道信息
2026-06-14T23:00:00+0800
13小时前
查看轨道信息
半长轴 6861.253km 6861.234km
偏心率 0.0001679 0.0002184
轨道倾角 43.006° 43.000°
近地点辐角 265.445° 209.974°
升交点赤经 101.928° 101.487°
平近点角 94.621° 220.541°
近地点 481.963km 481.598km
远地点 484.269km 484.596km
周期 94.268分钟 94.268分钟
每日圈数 15.275577 15.275643
Detailed Information
固有亮度:
5
最大亮度:
2.5
卫星平台:
Starlink v1.5
覆盖范围:
全球
运营商:
太空探索技术公司
运营商所在国:
美国
制造商(研发单位):
太空探索技术公司
制造商所在国:
美国
使用方式:
暂无
Satellite Introduction
星链(Starlink)计划是由太空探索技术公司(SpaceX)提出的一个巨型低轨卫星互联网星座项目,计划在2019年至2024年间在太空搭建由约1.2万颗卫星组成的“星链”网络,其中1584颗将部署在地球上空550千米处的近地轨道,并从2020年开始工作。该卫星仍在工作。
2D Orbit Map
3D Orbit Map
Orbit Altitude Analysis Chart
Orbit Inclination Analysis Chart
Orbit Comprehensive Analysis Chart
View Comprehensive Chart